Погода в Киркьюбуре

Дания     61°57′15″N   6°47′39″W
темп.,
°C
ветер,
м/с
пор.,
м/с
влажн.,
%
обл.,
%
осадки,
мм/ч
давл.,
гПа
погр.,
м
27 февраля, сб
сб2700:00+8зюз121888100 0.3 1019662
03:00+7юз1219820 0.0 1021838
06:00+7юз1217823 0.1 1023801
09:00+7зюз121783100 0.0 1025720
12:00+7юз121887100 0.1 1027611
15:00+7юз13198894 0.0 1027687
18:00+7юз12188997 0.0 1027646
21:00+7юз12188895 0.0 1027672
28 февраля, вс
вс2800:00+7юз12188884 0.0 1027723
03:00+7юз131987100 0.1 1026759
06:00+8юз121884100 0.1 1024700
09:00+8юз131988100 0.1 1024671
12:00+8юз131989100 0.1 1024624
15:00+8юз132089100 0.0 1023676
18:00+8юз121890100 0.0 1024625
21:00+7юз81392100 0.1 1025417
1 марта, пн
пн100:00+7юз5895100 0.4 1026230
03:00+8юз111795100 0.7 1025530
06:00+7юз111791100 0.7 1025607
09:00+7юз111687100 0.1 1026653
12:00+7зюз121584100 0.2 1027802
15:00+7зюз11148191 0.0 1027752
18:00+7зюз8128280 0.1 1027516
21:00+7зюз6108598 0.1 1028348
2 марта, вт
вт200:00+7юз698598 0.1 1028259
03:00+6юз688668 0.0 1028272
06:00+7ююз568679 0.1 1027143
09:00+6ю589358 0.0 1027245
12:00+7ююз689038 0.0 1027292
15:00+7ююз68890 0.0 1026283
18:00+7юз578526 0.1 1025226
21:00+7ююз4485100 0.1 102684
3 марта, ср
ср300:00+7юз568696 0.1 1026123
03:00+6зюз458563 0.1 102577
06:00+7юз448555 0.1 102559
09:00+7зюз559286 0.0 1025100
12:00+8зюз449092 0.1 1026124
15:00+8з4587100 0.0 1026147
18:00+7ссз349162 0.1 102651
21:00+4ссв10119563 1.3 1028548